Oakland, MD

5:25 PM EST on December 17, 2017 (GMT -0500)
Oakland

Weather History for K2G4 - March, 2013

Change the Weather History Date:

Friday, March 1, 2013

  Actual Average (KMGW) Record (KMGW)
Temperature  
Mean Temperature 24 °F -  
Max Temperature 26 °F 47 °F 75 °F (1972)
Min Temperature 21 °F 28 °F 9 °F (1967)
Degree Days  
Heating Degree Days 42    
Moisture  
Dew Point 24 °F    
Average Humidity 100    
Maximum Humidity 100    
Minimum Humidity 100    
Precipitation  
Precipitation 0.00 in - - ()
Sea Level Pressure  
Sea Level Pressure 29.75 in    
Wind  
Wind Speed 4 mph (WNW)    
Max Wind Speed 7 mph    
Max Gust Speed -    
Visibility 3 miles    
Events Fog    
Averages and records for this station are not official NWS values.
T = Trace of Precipitation, MM = Missing Value Source: NWS Daily Summary

Daily Weather History Graph

Daily Weather History Graph

Search for Another Location

Airport or City:

Trip Planner

Search our weather history database for the weather conditions in past years. The results will help you decide how hot, cold, wet, or windy it might be!

Date:

Astronomy

Mar. 01, 2013 Rise Set
Actual Time 6:49 AM EST 6:09 PM EST
Civil Twilight 6:23 AM EST 6:36 PM EST
Nautical Twilight 5:51 AM EST 7:08 PM EST
Astronomical Twilight 5:20 AM EST 7:39 PM EST
Moon 10:40 PM EST (3/1) 8:36 AM EST (3/1)
Length of Visible Light 12h 13m
Length of Day
11h 19m
Waning Gibbous, 83% of the Moon is Illuminated
Mar 1
Waning Gibbous
Mar 4
Last Quarter
Mar 11
New
Mar 19
First Quarter
Mar 27
Full

Hourly Weather History & Observations

Time (EST) Temp. Windchill Dew Point Humidity Pressure Visibility Wind Dir Wind Speed Gust Speed Precip Events Conditions
12:10 AM 26.6 °F 20.0 °F 26.6 °F 100% 29.69 in 3.0 mi WNW 5.8 mph - N/A   Overcast
12:30 AM 26.6 °F 19.1 °F 26.6 °F 100% 29.69 in 4.0 mi NW 6.9 mph - N/A   Overcast
12:50 AM 26.6 °F 20.0 °F 26.6 °F 100% 29.70 in 3.0 mi WNW 5.8 mph - N/A   Overcast
1:10 AM 26.6 °F 19.1 °F 26.6 °F 100% 29.70 in 7.0 mi WNW 6.9 mph - N/A   Overcast
1:30 AM 26.6 °F 21.2 °F 26.6 °F 100% 29.70 in 10.0 mi WNW 4.6 mph - N/A   Overcast
1:50 AM 26.6 °F 21.2 °F 26.6 °F 100% 29.70 in 0.8 mi WNW 4.6 mph - N/A   Overcast
2:10 AM 26.6 °F 20.0 °F 26.6 °F 100% 29.70 in 4.0 mi WNW 5.8 mph - N/A   Overcast
2:30 AM 26.6 °F 21.2 °F 26.6 °F 100% 29.70 in 0.5 mi WNW 4.6 mph - N/A Fog Light Freezing Fog
2:50 AM 26.6 °F 21.2 °F 26.6 °F 100% 29.70 in 0.2 mi WNW 4.6 mph - N/A Fog Light Freezing Fog
3:10 AM 26.6 °F - 26.6 °F 100% 29.70 in 1.0 mi Calm Calm - N/A   Overcast
3:30 AM 24.8 °F 20.5 °F 24.8 °F 100% 29.70 in 0.8 mi NW 3.5 mph - N/A   Overcast
3:50 AM 24.8 °F - 24.8 °F 100% 29.70 in 0.2 mi Calm Calm - N/A Fog Light Freezing Fog
4:10 AM 24.8 °F 19.1 °F 24.8 °F 100% 29.70 in 0.2 mi NW 4.6 mph - N/A Fog Light Freezing Fog
4:30 AM 24.8 °F 19.1 °F 24.8 °F 100% 29.70 in 0.2 mi WNW 4.6 mph - N/A Fog Light Freezing Fog
4:50 AM 24.8 °F 19.1 °F 24.8 °F 100% 29.71 in 7.0 mi NW 4.6 mph - N/A   Overcast
5:10 AM 23.0 °F 18.4 °F 23.0 °F 100% 29.71 in 7.0 mi WNW 3.5 mph - N/A   Overcast
5:30 AM 23.0 °F - 23.0 °F 100% 29.71 in 7.0 mi Calm Calm - N/A   Overcast
6:10 AM 23.0 °F - 23.0 °F 100% 29.72 in 10.0 mi Calm Calm - N/A   Overcast
6:30 AM 23.0 °F 18.4 °F 23.0 °F 100% 29.72 in 1.8 mi NW 3.5 mph - N/A   Overcast
6:50 AM 23.0 °F 18.4 °F 23.0 °F 100% 29.72 in 1.8 mi WNW 3.5 mph - N/A   Overcast
7:10 AM 23.0 °F 18.4 °F 23.0 °F 100% 29.73 in 0.2 mi NW 3.5 mph - N/A Fog Light Freezing Fog
7:30 AM 23.0 °F 18.4 °F 23.0 °F 100% 29.73 in 0.2 mi NW 3.5 mph - N/A Fog Light Freezing Fog
7:50 AM 24.8 °F 20.5 °F 24.8 °F 100% 29.74 in 0.2 mi NW 3.5 mph - N/A Fog Light Freezing Fog
8:10 AM 24.8 °F 20.5 °F 24.8 °F 100% 29.75 in 0.2 mi WNW 3.5 mph - N/A Fog Light Freezing Fog
8:30 AM 24.8 °F 19.1 °F 24.8 °F 100% 29.75 in 1.5 mi WNW 4.6 mph - N/A   Overcast
8:50 AM 24.8 °F 19.1 °F 24.8 °F 100% 29.76 in 3.0 mi WNW 4.6 mph - N/A   Overcast
9:30 AM 23.0 °F 18.4 °F 23.0 °F 100% 29.76 in 2.5 mi NW 3.5 mph - N/A   Overcast
9:50 AM 24.8 °F 20.5 °F 24.8 °F 100% 29.76 in 1.8 mi NW 3.5 mph - N/A   Overcast
10:10 AM 24.8 °F 20.5 °F 24.8 °F 100% 29.75 in 2.5 mi WNW 3.5 mph - N/A   Overcast
10:30 AM 26.6 °F 22.6 °F 26.6 °F 100% 29.75 in 2.0 mi WNW 3.5 mph - N/A   Overcast
10:50 AM 26.6 °F 22.6 °F 26.6 °F 100% 29.76 in 2.5 mi NW 3.5 mph - N/A   Overcast
11:10 AM 26.6 °F 21.2 °F 26.6 °F 100% 29.76 in 3.0 mi NW 4.6 mph - N/A   Overcast
11:30 AM 24.8 °F 19.1 °F 24.8 °F 100% 29.77 in 5.0 mi NW 4.6 mph - N/A   Overcast
12:10 PM 24.8 °F 20.5 °F 24.8 °F 100% 29.78 in 5.0 mi WNW 3.5 mph - N/A   Overcast
12:30 PM 26.6 °F 22.6 °F 26.6 °F 100% 29.77 in 4.0 mi WNW 3.5 mph - N/A   Overcast
12:50 PM 26.6 °F 22.6 °F 26.6 °F 100% 29.77 in 4.0 mi NW 3.5 mph - N/A   Overcast
1:10 PM 26.6 °F 22.6 °F 26.6 °F 100% 29.76 in 2.5 mi WNW 3.5 mph - N/A   Overcast
1:30 PM 26.6 °F 21.2 °F 26.6 °F 100% 29.76 in 3.0 mi WNW 4.6 mph - N/A   Overcast
1:50 PM 26.6 °F 22.6 °F 26.6 °F 100% 29.75 in 2.5 mi NW 3.5 mph - N/A   Overcast
2:10 PM 24.8 °F 20.5 °F 24.8 °F 100% 29.75 in 2.5 mi WNW 3.5 mph - N/A   Overcast
2:30 PM 26.6 °F - 26.6 °F 100% 29.75 in 1.5 mi Calm Calm - N/A   Overcast
2:50 PM 26.6 °F 22.6 °F 26.6 °F 100% 29.76 in 1.5 mi WNW 3.5 mph - N/A   Overcast
3:10 PM 24.8 °F 19.1 °F 24.8 °F 100% 29.75 in 2.5 mi WNW 4.6 mph - N/A   Overcast
3:30 PM 24.8 °F 19.1 °F 24.8 °F 100% 29.76 in 1.2 mi WNW 4.6 mph - N/A   Overcast
3:50 PM 26.6 °F 22.6 °F 26.6 °F 100% 29.75 in 1.2 mi WNW 3.5 mph - N/A   Overcast
4:10 PM 24.8 °F 20.5 °F 24.8 °F 100% 29.76 in 2.5 mi WNW 3.5 mph - N/A   Overcast
4:30 PM 24.8 °F - 24.8 °F 100% 29.76 in 2.5 mi Calm Calm - N/A   Overcast
4:50 PM 23.0 °F 17.0 °F 23.0 °F 100% 29.77 in 2.0 mi NW 4.6 mph - N/A   Overcast
5:10 PM 23.0 °F 18.4 °F 23.0 °F 100% 29.77 in 1.0 mi WNW 3.5 mph - N/A   Overcast
5:30 PM 23.0 °F 17.0 °F 23.0 °F 100% 29.78 in 2.5 mi WNW 4.6 mph - N/A   Overcast
5:50 PM 23.0 °F - 23.0 °F 100% 29.78 in 4.0 mi Calm Calm - N/A   Overcast
6:10 PM 23.0 °F 18.4 °F 23.0 °F 100% 29.78 in 1.5 mi NW 3.5 mph - N/A   Overcast
7:10 PM 21.2 °F 14.9 °F 21.2 °F 100% 29.80 in 3.0 mi NW 4.6 mph - N/A   Overcast
7:30 PM 21.2 °F - 21.2 °F 100% 29.80 in 4.0 mi Calm Calm - N/A   Overcast
7:50 PM 21.2 °F 14.9 °F 21.2 °F 100% 29.81 in 2.5 mi NW 4.6 mph - N/A   Overcast
8:10 PM 21.2 °F 16.4 °F 21.2 °F 100% 29.81 in 4.0 mi NW 3.5 mph - N/A   Overcast
8:30 PM 21.2 °F 16.4 °F 21.2 °F 100% 29.81 in 5.0 mi WNW 3.5 mph - N/A   Overcast
8:50 PM 21.2 °F 16.4 °F 21.2 °F 100% 29.81 in 5.0 mi NW 3.5 mph - N/A   Overcast
9:10 PM 21.2 °F 16.4 °F 21.2 °F 100% 29.81 in 3.0 mi NW 3.5 mph - N/A   Overcast
9:30 PM 21.2 °F - 21.2 °F 100% 29.82 in 4.0 mi Calm Calm - N/A   Overcast
9:50 PM 21.2 °F - 21.2 °F 100% 29.82 in 5.0 mi Calm Calm - N/A   Overcast
10:10 PM 21.2 °F - 21.2 °F 100% 29.82 in 5.0 mi Calm Calm - N/A   Overcast
10:30 PM 21.2 °F - 21.2 °F 100% 29.82 in 5.0 mi Calm Calm - N/A   Overcast
10:50 PM 21.2 °F 16.4 °F 21.2 °F 100% 29.81 in 5.0 mi NW 3.5 mph - N/A   Overcast
11:10 PM 21.2 °F - 21.2 °F 100% 29.81 in 4.0 mi Calm Calm - N/A   Overcast
11:30 PM 21.2 °F - 21.2 °F 100% 29.81 in 4.0 mi Calm Calm - N/A   Overcast
11:50 PM 21.2 °F - 21.2 °F 100% 29.80 in 4.0 mi Calm Calm - N/A   Overcast